Dewpoint
-1 -1 -0 -4 -4 -4 -4 -3 -3 -3 -3 -1 -2 -1 -3 4 7 7 9 8 9 9 8 9 9 9 8 8 9 10 10 11 9 9 8 7 8 9 9 9 8 6 6 7
0 0 -2 -2 -3 -1 -2 -2 -2 -2 -3 -1 -2 -2 -2 2 7 6 7 8 9 8 9 8 8 9 9 10 10 10 11 11 10 10 8 7 6 8 9 5 7 8 7 8
-1 -2 -2 -1 -1 -0 -1 -1 -1 -1 -2 -1 -1 -2 -2 -1 4 6 6 6 7 8 8 9 8 8 9 9 10 10 11 11 11 10 8 8 9 9 9 8 8 7 8 8
-2 -3 -2 -1 -2 -2 -0 -2 -2 -1 0 -0 -2 -3 -4 -2 0 4 6 7 7 8 8 8 9 9 9 9 9 10 11 11 11 10 10 8 8 9 10 8 7 7 8 7
-2 -2 -1 -1 -1 -2 -1 -1 -0 0 1 1 -0 -2 -4 -3 -3 -2 1 4 6 7 7 7 7 8 9 9 9 9 10 11 11 11 10 10 9 9 10 8 8 8 8 6
-4 -2 -2 -2 -1 -1 -1 1 1 1 1 2 -0 -0 -4 -5 -4 -3 -3 -2 3 6 7 7 7 7 8 9 10 9 9 10 10 9 9 10 10 11 9 8 8 8 8 7
-3 -3 -2 -2 -1 -1 -0 2 3 5 3 2 0 -1 -3 -5 -3 -3 -2 0 0 1 6 7 7 8 7 8 9 6 6 9 9 8 9 9 9 10 8 7 9 9 9 7
-1 -0 -2 -2 -2 -1 0 0 2 2 2 -0 0 -1 -4 -4 -4 -2 0 1 1 2 2 5 7 7 8 8 8 4 4 6 7 6 7 8 7 6 7 8 9 9 9 7
-1 -3 -4 -2 -2 -2 2 2 -0 3 5 4 -1 -3 -5 -6 -4 -2 -4 -0 1 1 2 4 5 7 8 9 9 2 3 9 10 6 6 6 7 5 5 8 9 9 9 8
-3 -1 -3 0 -0 0 0 -1 2 2 4 2 -1 -1 -4 -5 -5 -5 -5 -4 0 4 2 2 3 5 7 8 9 10 9 9 9 8 5 6 7 7 8 8 8 9 9 8
-5 -3 1 2 1 -0 2 2 1 0 1 2 2 -1 -5 -6 -6 -4 -5 -2 -1 1 4 3 3 3 5 7 8 9 9 9 9 9 7 6 7 7 8 9 9 9 8 8
-4 -3 -0 -1 -1 -1 -1 -0 1 2 2 3 4 1 -5 -5 -3 -4 -3 -1 -1 2 3 5 5 6 6 7 8 8 9 9 9 10 10 7 8 8 8 7 8 9 8 8
-3 -2 0 -1 -1 1 -0 -1 -1 0 2 1 5 1 -3 -4 -3 -3 -3 -3 -1 1 3 5 6 8 8 8 9 9 10 10 10 9 9 9 9 9 9 8 9 8 7 5
-2 -3 -1 1 -3 -5 -2 -1 -1 -1 2 0 -1 -2 -4 -4 -4 -4 -4 -3 -2 -1 1 4 6 7 9 10 10 9 8 8 9 9 9 10 10 9 9 8 8 6 5 4
-1 -2 -2 -4 -6 -6 -5 -5 -4 -1 -2 -1 -1 -3 -4 -4 -4 -4 -3 -2 -3 -2 -2 2 6 9 9 10 9 9 8 9 10 10 9 9 8 8 8 7 6 4 4 3
-1 -1 -1 -0 -3 -3 -3 -4 -4 -2 -3 -2 -1 -2 -5 -4 -3 -3 -2 -2 1 4 4 4 6 9 9 9 9 9 9 9 9 8 8 8 7 6 5 5 4 3 3 2
2 -0 2 1 0 0 4 1 -2 -1 -1 -1 -1 -3 -5 -3 -3 -3 -0 2 4 5 6 6 7 8 8 8 8 8 8 8 7 7 6 6 5 4 4 4 3 2 1 1
3 2 3 3 5 9 -2 -1 -2 -2 -2 -3 -2 -3 -3 -4 -2 0 2 3 4 4 5 5 6 6 6 6 6 6 5 5 5 5 4 3 3 3 3 2 1 1 0 -0
2 3 5 9 4 -0 -1 -2 -0 0 -1 -3 -2 -4 -5 -2 -0 1 1 3 3 4 4 4 4 4 5 4 4 4 4 5 4 4 3 3 3 1 -0 1 1 -0 -1 -3
2 3 5 5 5 10 1 -3 -3 -2 1 -4 -4 -4 -4 0 2 -2 1 1 2 2 2 3 3 3 3 3 3 4 4 4 3 2 0 -1 -1 0 0 -1 -3 -4 -6 -7
6 5 8 6 8 3 -0 -2 -3 2 2 -3 -4 -3 -1 1 -0 1 0 0 1 1 1 1 1 2 2 2 2 1 1 0 0 -1 -2 -1 0 -3 -4 -6 -10 -11 -10 -13
6 7 8 6 10 8 -1 -3 -0 -1 0 -2 -1 -1 0 1 0 -0 -0 -1 -0 -0 -0 -0 -0 0 1 1 1 -0 -1 -2 -3 -2 0 -2 -5 -9 -12 -13 -12 -12 -11 -15
5 4 5 4 3 3 -2 -2 -2 -0 -2 -0 -1 -0 1 1 -1 -1 -1 -1 -1 -1 -1 -1 -1 -1 -2 -2 -2 -3 -3 -2 -1 -4 -7 -10 -13 -13 -13 -14 -18 -22 -21 -22
2 2 5 4 -0 1 1 -1 1 -0 -1 -1 -1 1 2 -0 -1 -1 -2 -2 -2 -2 -2 -3 -3 -3 -3 -3 -3 -2 -2 -5 -7 -11 -12 -12 -14 -17 -22 -25 -28 -23 -27 -23
2 3 2 3 1 2 2 2 1 1 -0 -2 -2 1 1 -0 -1 -2 -2 -2 -3 -3 -3 -3 -4 -4 -4 -3 -2 -3 -6 -10 -11 -12 -15 -19 -22 -26 -29 -31 -34 -33 -22 -34
2 3 6 6 2 2 -0 2 2 2 2 0 -0 0 0 -1 -2 -2 -2 -3 -3 -4 -4 -4 -4 -4 -3 -3 -6 -9 -11 -12 -16 -20 -22 -25 -28 -32 -33 -24 -15 -23 -30 -32
Wind_Speed
9 8 11 9 11 7 7 5 5 6 2 7 6 10 2 9 12 13 13 16 18 19 18 20 21 25 27 24 23 21 19 16 15 17 17 18 19 19 20 23 22 20 21 20
7 11 6 2 6 7 8 7 7 3 1 8 7 7 4 10 12 13 16 17 19 20 21 22 23 24 25 26 26 23 21 18 17 17 18 17 19 18 19 23 23 24 24 19
13 2 3 8 8 9 10 9 5 7 9 4 7 7 6 7 11 12 14 15 17 20 23 25 26 26 25 27 27 25 22 20 20 18 17 16 16 16 19 25 26 25 21 20
12 7 7 8 10 9 9 4 10 8 6 2 2 2 4 7 10 13 17 19 20 20 21 24 28 29 28 27 26 27 23 22 22 23 19 20 19 18 18 23 23 23 22 22
11 10 11 11 13 10 4 1 5 6 8 5 6 7 7 5 8 13 18 22 23 24 25 27 29 29 28 25 26 26 26 24 23 24 25 23 22 19 19 22 23 24 24 25
11 3 5 2 4 10 7 5 3 3 4 6 2 5 2 1 4 2 3 19 25 26 27 28 26 25 27 27 27 27 27 26 26 28 29 28 24 22 26 27 26 26 26 29
15 13 5 6 8 6 9 7 5 5 5 3 4 5 7 5 2 7 8 7 12 26 28 28 27 27 28 29 29 30 29 29 28 30 28 27 25 24 27 28 30 28 27 32
16 15 14 11 10 7 14 10 4 6 5 4 3 5 2 1 5 7 7 9 9 15 26 29 29 29 29 30 30 32 32 31 31 29 28 26 22 16 28 32 34 30 29 30
16 15 5 7 4 9 6 8 1 1 2 2 4 5 11 3 4 1 3 3 2 7 16 22 26 27 28 28 31 35 33 28 28 30 27 24 26 26 32 31 33 29 30 29
7 13 8 8 6 3 6 10 5 4 4 6 5 5 5 1 5 1 2 6 4 1 5 11 17 23 24 24 24 26 28 26 24 27 30 30 31 24 26 29 30 30 29 29
14 9 7 7 11 12 6 8 4 2 3 4 3 4 2 4 2 2 1 2 3 2 1 5 8 12 15 18 19 20 23 22 21 21 25 27 28 28 24 27 26 31 29 29
18 9 9 13 4 5 9 12 14 7 8 4 4 8 9 10 5 6 6 7 5 3 2 3 5 7 10 13 14 15 15 17 17 17 17 20 20 23 21 17 19 26 30 30
16 10 10 11 7 5 8 11 11 7 2 11 8 7 3 5 7 10 11 6 8 7 6 6 6 7 8 10 11 11 11 13 15 18 19 19 19 19 21 21 23 24 23 3
24 14 18 14 12 10 14 13 14 14 9 11 12 16 12 13 13 12 10 7 7 7 8 8 9 9 9 10 11 12 11 13 15 16 16 16 17 15 14 14 13 11 9 9
13 18 17 17 15 13 16 16 17 18 17 16 13 15 13 14 13 13 6 5 5 6 8 9 10 10 10 10 10 11 12 13 13 12 9 7 7 7 8 9 11 12 9 14
9 13 12 13 11 13 15 17 17 18 16 12 17 17 13 17 8 8 6 4 2 2 3 6 9 10 10 10 10 10 10 9 8 9 8 8 8 9 11 13 14 13 15 11
6 10 7 13 5 5 7 15 15 14 12 14 15 15 13 11 13 12 7 4 4 5 7 9 11 12 12 12 11 12 12 11 10 11 11 11 12 13 13 13 12 8 3 7
6 11 6 6 4 7 13 2 12 17 16 16 15 14 14 13 5 6 6 7 10 10 10 11 12 14 14 15 15 15 15 16 15 15 15 15 15 15 14 8 3 3 7 9
10 7 5 5 10 11 8 5 8 11 16 17 17 18 15 8 7 6 8 9 11 12 13 14 15 16 16 17 17 18 18 16 16 16 16 16 14 10 6 1 6 6 3 4
6 5 6 4 7 8 6 13 13 6 13 12 14 14 8 13 7 5 16 14 13 13 13 15 16 17 18 18 17 18 19 19 19 19 17 13 9 3 2 3 3 3 4 6
4 3 10 8 5 4 3 8 14 9 15 5 11 11 15 12 2 18 20 16 14 14 16 17 17 17 18 19 20 21 20 19 17 15 12 8 4 5 3 2 3 4 6 10
5 7 4 4 5 9 12 11 10 12 4 8 11 13 19 13 14 20 21 20 18 18 18 17 19 19 19 19 20 20 18 16 15 10 6 7 5 4 2 2 5 7 9 12
6 7 4 8 5 3 26 14 21 7 8 8 12 14 18 19 20 23 23 22 21 20 20 19 21 22 20 18 17 18 16 13 10 8 6 5 3 2 3 6 8 9 11 12
12 6 5 2 8 11 13 19 13 12 12 7 8 13 21 24 25 25 23 23 22 21 21 21 22 22 21 18 16 14 12 11 9 7 5 3 3 4 6 7 9 8 10 10
6 10 13 11 12 7 12 18 21 20 15 15 14 17 22 25 26 26 25 24 23 23 22 22 21 21 21 19 15 13 12 10 7 5 4 3 4 5 7 8 8 8 9 12
8 8 6 6 10 9 14 7 11 19 21 20 17 18 22 26 29 27 26 25 25 25 24 23 22 22 20 17 15 13 11 9 6 5 4 4 5 6 6 5 5 12 10 12
Wind_Direction
200 227 227 241 227 314 268 274 276 293 100 282 284 289 332 186 197 187 192 189 191 193 185 188 183 186 190 200 202 208 207 209 205 204 201 201 200 201 209 217 223 227 230 228
203 228 242 211 206 237 236 247 263 254 99 306 311 302 137 176 201 201 193 199 199 195 194 191 192 194 197 202 205 206 209 212 207 204 204 207 207 209 217 225 231 231 230 219
230 145 200 207 191 222 239 265 282 284 320 255 289 220 198 187 205 207 212 206 204 201 201 201 199 202 206 208 210 211 212 213 211 208 208 209 205 213 220 229 234 234 231 219
231 219 217 225 246 236 250 248 266 265 274 246 340 263 165 197 210 216 212 210 210 207 207 207 207 209 210 213 215 215 214 215 218 221 212 215 214 222 230 239 240 239 227 222
206 190 201 226 243 211 242 159 244 254 254 279 181 256 119 189 236 225 219 218 215 210 208 208 210 213 212 212 212 214 214 216 218 220 220 225 224 230 232 237 241 239 229 225
219 155 220 248 190 202 133 166 155 196 233 239 129 273 278 182 325 323 263 222 224 218 215 215 215 213 214 215 217 218 216 218 220 228 229 228 228 227 238 246 242 238 233 228
200 210 182 187 177 185 204 219 182 190 206 252 113 256 275 301 251 298 294 280 240 226 221 219 214 212 212 214 216 221 222 219 222 230 232 230 233 233 250 256 250 248 246 232
204 203 206 187 228 213 207 217 239 223 196 188 163 245 132 6 295 293 277 281 270 223 217 218 218 217 216 213 215 220 222 223 227 233 238 242 243 258 269 256 251 251 257 238
202 211 155 210 193 210 169 214 350 104 26 256 252 228 253 211 295 278 315 298 245 210 211 215 216 216 217 216 217 224 223 219 220 232 240 232 224 236 248 256 255 253 253 239
199 213 195 148 165 159 254 140 179 214 226 243 204 254 269 179 131 116 26 18 21 75 194 209 213 217 217 219 219 219 220 220 219 229 236 233 236 250 261 261 259 255 248 247
210 228 158 177 204 192 170 198 219 253 255 256 267 243 213 214 269 234 217 313 344 360 208 196 200 204 209 213 215 218 222 220 221 227 240 244 249 254 266 266 263 256 248 247
194 212 206 206 133 261 264 224 205 220 200 230 281 276 249 251 286 251 253 251 264 268 241 203 191 190 191 198 204 212 214 215 219 221 228 243 247 253 262 271 271 251 246 240
179 210 208 213 196 188 219 209 222 232 256 238 247 265 158 196 243 247 251 250 239 237 222 202 189 183 182 183 188 194 198 200 203 214 224 236 246 247 243 242 244 240 234 218
176 207 217 226 220 207 214 221 213 222 232 250 243 269 268 250 254 261 231 228 236 236 225 210 196 182 174 173 179 187 199 210 216 222 230 237 243 249 250 250 241 199 202 244
200 218 222 236 240 245 238 242 224 227 238 249 252 260 267 278 277 257 244 256 245 235 221 213 202 188 172 168 174 174 203 208 211 217 210 202 203 218 218 211 190 184 192 187
197 221 216 220 227 231 241 243 246 228 242 250 261 268 282 280 273 244 263 273 226 179 165 179 172 163 157 162 165 173 179 190 185 173 174 173 175 165 165 167 176 180 182 188
198 201 197 229 208 214 257 236 225 222 225 233 257 272 285 264 249 244 241 216 175 137 129 128 137 141 145 151 148 147 150 146 150 148 143 148 157 161 169 177 181 181 206 264
191 204 202 222 167 227 249 260 234 237 243 239 258 266 260 278 261 196 204 188 151 136 125 120 122 126 127 131 132 130 127 129 131 132 142 153 163 166 163 150 149 262 287 291
216 191 179 177 217 258 243 197 195 201 244 240 246 265 268 217 191 202 181 163 149 141 132 127 126 124 122 123 124 127 127 130 138 141 148 152 150 138 131 280 296 290 242 250
180 231 236 168 217 223 225 213 204 214 251 255 245 261 224 178 222 206 167 157 144 135 130 128 127 127 127 125 128 129 128 133 134 139 138 138 138 156 261 151 154 231 262 275
168 179 210 207 233 241 221 150 157 211 252 268 229 228 191 202 263 141 152 145 143 139 135 130 126 125 126 128 128 124 126 125 130 140 146 158 181 160 177 207 249 277 288 292
200 186 176 191 211 235 151 136 206 234 231 212 211 203 195 181 150 151 152 151 149 146 141 137 132 129 128 131 132 130 130 133 142 156 176 169 177 180 202 258 292 302 301 300
254 232 250 215 215 92 184 221 225 246 247 216 207 195 185 171 163 162 156 155 154 152 149 146 141 135 133 134 136 132 133 144 152 156 160 166 181 230 272 289 296 302 302 304
218 191 251 237 236 228 212 230 244 237 225 220 206 194 184 176 167 163 160 158 154 154 150 147 141 135 131 134 138 142 146 147 153 160 165 181 232 281 295 302 302 304 305 311
209 164 227 255 262 284 257 241 235 236 235 232 221 194 186 177 169 165 163 161 158 154 151 150 146 143 145 152 156 155 154 157 164 172 194 236 276 293 304 306 305 309 307 316
192 200 193 226 222 218 260 245 238 234 232 230 209 182 179 180 171 166 165 164 160 155 154 150 152 156 156 159 158 159 163 164 176 201 236 274 296 305 311 316 326 317 320 327
Height
1503 1501 1498 1491 1493 1492 1489 1492 1493 1488 1490 1492 1485 1485 1483 1492 1496 1498 1502 1506 1510 1513 1517 1519 1521 1526 1529 1532 1535 1537 1540 1542 1543 1545 1548 1551 1554 1558 1559 1560 1563 1564 1567 1569
1501 1497 1489 1494 1495 1497 1494 1494 1491 1488 1489 1490 1482 1482 1482 1488 1493 1493 1497 1502 1505 1510 1514 1517 1519 1522 1524 1527 1530 1533 1537 1540 1541 1544 1547 1549 1552 1555 1557 1557 1559 1562 1563 1565
1491 1489 1492 1494 1494 1495 1493 1494 1492 1492 1487 1484 1486 1479 1480 1484 1488 1490 1493 1496 1501 1504 1508 1511 1514 1517 1520 1522 1525 1529 1533 1537 1538 1542 1543 1546 1549 1551 1552 1554 1557 1558 1559 1561
1489 1487 1493 1494 1492 1491 1493 1488 1491 1490 1492 1488 1486 1483 1476 1477 1481 1485 1488 1490 1493 1498 1502 1506 1509 1511 1514 1518 1523 1526 1530 1533 1534 1537 1541 1542 1545 1548 1550 1550 1552 1554 1556 1557
1487 1487 1491 1491 1487 1489 1488 1491 1491 1490 1489 1487 1484 1484 1467 1474 1473 1473 1480 1484 1487 1491 1495 1499 1502 1506 1511 1514 1517 1521 1525 1528 1530 1532 1536 1538 1542 1546 1548 1546 1548 1549 1551 1552
1477 1486 1486 1483 1487 1488 1490 1491 1491 1490 1488 1494 1483 1486 1468 1465 1468 1469 1471 1475 1480 1484 1488 1492 1497 1502 1505 1509 1511 1514 1519 1522 1525 1527 1530 1533 1536 1540 1539 1541 1542 1543 1544 1547
1479 1480 1482 1485 1485 1489 1488 1488 1494 1502 1497 1494 1485 1487 1472 1465 1468 1469 1470 1473 1475 1477 1481 1486 1490 1494 1498 1502 1504 1508 1511 1515 1518 1521 1524 1527 1531 1534 1534 1536 1536 1537 1538 1541
1477 1485 1478 1478 1478 1479 1482 1481 1488 1501 1499 1489 1489 1485 1466 1465 1467 1469 1470 1470 1470 1471 1474 1478 1483 1488 1492 1495 1498 1501 1505 1508 1511 1515 1518 1521 1525 1527 1527 1528 1530 1531 1533 1535
1470 1471 1471 1475 1476 1477 1484 1486 1479 1490 1500 1497 1477 1471 1462 1464 1466 1466 1466 1466 1466 1467 1470 1473 1477 1482 1486 1490 1491 1494 1498 1502 1506 1508 1512 1516 1518 1520 1521 1522 1524 1525 1528 1530
1463 1473 1469 1475 1477 1479 1476 1475 1488 1485 1501 1499 1477 1478 1469 1464 1464 1464 1463 1463 1464 1464 1465 1469 1472 1476 1480 1484 1487 1490 1494 1498 1502 1503 1506 1510 1512 1515 1517 1517 1519 1521 1521 1523
1457 1461 1475 1474 1473 1468 1479 1477 1477 1476 1480 1488 1490 1476 1459 1460 1461 1462 1462 1464 1464 1464 1464 1465 1467 1470 1474 1478 1482 1486 1489 1494 1497 1500 1501 1503 1506 1508 1510 1511 1514 1515 1516 1518
1453 1458 1467 1466 1464 1466 1463 1463 1467 1478 1482 1481 1484 1478 1457 1458 1461 1462 1462 1463 1464 1464 1464 1464 1465 1467 1469 1473 1477 1481 1484 1488 1493 1496 1498 1498 1500 1502 1505 1506 1508 1511 1512 1512
1449 1456 1467 1468 1470 1468 1465 1463 1463 1467 1474 1475 1485 1475 1458 1459 1460 1460 1460 1460 1461 1463 1464 1464 1464 1466 1468 1470 1474 1478 1482 1485 1488 1489 1491 1493 1495 1497 1499 1500 1502 1504 1507 1509
1446 1445 1452 1459 1453 1451 1462 1460 1461 1462 1471 1469 1465 1460 1453 1452 1452 1454 1455 1456 1458 1459 1460 1462 1464 1465 1467 1469 1471 1473 1476 1478 1481 1484 1486 1490 1492 1494 1496 1499 1501 1502 1507 1508
1441 1443 1445 1445 1444 1445 1449 1450 1452 1458 1457 1462 1457 1452 1447 1448 1448 1449 1454 1454 1455 1457 1457 1459 1461 1463 1465 1466 1468 1471 1471 1474 1477 1481 1484 1486 1489 1491 1493 1495 1498 1502 1505 1509
1437 1440 1440 1447 1444 1448 1450 1446 1446 1449 1448 1448 1450 1448 1445 1447 1451 1452 1453 1453 1454 1455 1455 1457 1458 1461 1462 1463 1465 1468 1469 1474 1476 1477 1481 1483 1487 1490 1492 1495 1498 1501 1504 1507
1437 1436 1444 1446 1448 1451 1463 1449 1443 1444 1446 1446 1447 1441 1440 1443 1445 1447 1451 1452 1453 1454 1454 1456 1457 1458 1459 1461 1464 1466 1469 1471 1474 1477 1480 1484 1487 1490 1492 1495 1498 1501 1505 1507
1437 1436 1438 1445 1462 1464 1433 1435 1434 1437 1436 1435 1437 1436 1438 1440 1443 1447 1449 1451 1452 1453 1454 1455 1456 1457 1459 1461 1463 1465 1469 1472 1475 1478 1481 1484 1488 1490 1493 1497 1499 1501 1502 1503
1434 1435 1442 1450 1445 1433 1431 1438 1436 1436 1433 1428 1433 1430 1432 1440 1445 1445 1447 1450 1452 1452 1454 1455 1456 1459 1461 1463 1465 1467 1469 1473 1476 1479 1482 1486 1489 1492 1494 1496 1497 1498 1500 1501
1436 1437 1433 1446 1440 1446 1425 1422 1428 1431 1433 1423 1426 1426 1429 1439 1437 1429 1442 1446 1450 1453 1454 1456 1458 1459 1461 1464 1466 1468 1470 1473 1476 1480 1484 1487 1490 1492 1493 1495 1496 1496 1497 1498
1436 1438 1436 1435 1434 1421 1416 1422 1427 1438 1425 1417 1421 1424 1429 1432 1430 1434 1439 1445 1450 1453 1455 1457 1459 1462 1464 1465 1468 1470 1474 1477 1480 1482 1484 1487 1489 1490 1491 1492 1493 1494 1494 1493
1427 1429 1434 1436 1437 1434 1418 1425 1423 1411 1413 1415 1418 1420 1423 1429 1431 1434 1437 1442 1447 1451 1454 1457 1459 1462 1465 1468 1470 1472 1474 1477 1478 1481 1483 1485 1486 1487 1488 1489 1489 1489 1489 1488
1429 1419 1413 1414 1406 1407 1408 1406 1409 1409 1411 1413 1414 1417 1421 1424 1428 1432 1436 1440 1444 1449 1453 1455 1457 1460 1464 1468 1470 1471 1474 1476 1478 1480 1481 1483 1484 1485 1485 1486 1485 1485 1484 1482
1414 1415 1416 1412 1398 1403 1405 1407 1407 1408 1408 1410 1410 1414 1417 1421 1425 1430 1435 1440 1443 1448 1452 1456 1458 1461 1464 1467 1469 1471 1473 1476 1477 1479 1481 1482 1482 1482 1482 1482 1481 1481 1479 1477
1400 1408 1405 1400 1397 1404 1402 1402 1400 1404 1405 1406 1407 1408 1412 1418 1422 1427 1434 1438 1442 1446 1451 1455 1457 1460 1462 1465 1467 1470 1472 1474 1476 1478 1479 1480 1480 1480 1479 1478 1477 1476 1474 1472
1398 1396 1401 1397 1394 1395 1393 1396 1395 1398 1400 1402 1403 1405 1409 1413 1417 1424 1431 1436 1440 1444 1448 1451 1455 1457 1460 1462 1465 1468 1470 1472 1474 1476 1477 1477 1476 1476 1475 1474 1473 1470 1469 1467